www.pogodaiklimat.ru
ПОГОДА в Монтевидео
Время
(UTC), дата
04:36 13.12
04:55 13.12
05:15 14.12
05:35 14.12
05:36 14.12
05:55 14.12
06:15 14.12
06:16 14.12
06:35 14.12
06:55 14.12
06:56 14.12
07:15 14.12
07:16 14.12
07:35 14.12
07:55 14.12
07:56 14.12
08:15 14.12
08:35 14.12
08:55 14.12
08:56 14.12
09:15 14.12
09:35 14.12
09:55 14.12
09:56 14.12
10:15 14.12
10:16 14.12
10:35 14.12
10:36 14.12
10:55 14.12
11:15 14.12
11:35 14.12
11:55 14.12
12:15 14.12
12:16 14.12
12:35 14.12
12:55 14.12
12:56 14.12
13:15 14.12
13:16 14.12
13:35 14.12
13:55 14.12
13:56 14.12
14:15 14.12
14:16 14.12
14:35 14.12
14:36 14.12
14:55 14.12
15:15 14.12
Ветер
(напр.,м/с)
Видим. Явления Облачность Т
(С)
Тd
(С)
f
(%)
Тe
(С)
Тes
(С)
Комфортность P
(гПа)
Po
(гПа)
Тmin
(С)
Tmax
(С)
R
(мм)
R24
(мм)
S
(см)
С 8 11 км слабый снег 10/10 510 м -10.0 -13.0 79 -20 -20 976.1
С 7
{10}
11 км слабый снег 10/10 510 м -10.0 -13.0 79 -20 -20 976.1
С 7
{9}
8 км слабый снег 10/10 510 м -10.0 -13.0 79 -20 -20 976.1
С 9
{11}
8 км слабый снег 10/10 510 м -10.0 -13.0 79 -21 -21 976.1
С 8
{11}
8 км слабый снег 10/10 510 м -10.0 -13.0 79 -20 -20 976.5
С 7
{11}
8 км слабый снег 10/10 510 м -10.0 -13.0 79 -20 -20 976.5
С 8
{11}
8 км слабый снег 10/10 360 м -10.0 -13.0 79 -20 -20 976.5
С 8
{10}
8 км слабый снег 10/10 360 м -10.0 -13.0 79 -20 -20 976.5
С 8
{11}
8 км слабый снег 10/10 420 м -11.0 -13.0 85 -21 -21 976.5
С 6 16 км слабый снег 10/10 390 м -11.0 -13.0 85 -20 -20 976.8
С 6 16 км слабый снег 10/10 390 м -11.0 -13.0 85 -20 -20 976.8
С 8
{11}
11 км 10/10 450 м -11.0 -14.0 78 -21 -21 976.8
С 7
{11}
11 км 10/10 450 м -11.0 -14.0 78 -21 -21 976.8
С 7
{9}
11 км слабый снег 10/10 330 м -11.0 -14.0 78 -21 -21 976.8
С 8
{11}
6 км слабый снег 10/10 330 м -11.0 -14.0 78 -21 -21 977.1
С 8
{11}
8 км слабый снег 10/10 330 м -11.0 -14.0 78 -21 -21 977.1
С 8
{10}
11 км слабый снег 10/10 330 м -12.0 -15.0 78 -22 -22 977.1
С 6
{10}
8 км слабый снег 10/10 330 м -12.0 -15.0 78 -21 -21 977.4
С 9
{11}
6 км слабый снег 10/10 330 м -12.0 -16.0 72 -23 -23 977.1
С 9
{11}
6 км слабый снег 10/10 330 м -13.0 -16.0 78 -25 -25 977.1
С 7 11 км слабый снег 10/10 330 м -13.0 -16.0 78 -23 -23 977.4
С 7
{9}
3 км слабый снег 10/10 240 м -13.0 -16.0 78 -23 -23 977.4
С 8
{10}
5 км слабый снег 10/10 330 м -14.0 -17.0 78 -25 -25 977.8
С 8
{10}
5 км слабый снег 10/10 330 м -14.0 -17.0 78 -25 -25 977.8
С 6 11 км слабый снег 10/10 300 м -14.0 -18.0 72 -24 -24 977.8
С 6 11 км слабый снег 10/10 300 м -14.0 -18.0 72 -24 -24 977.8
С 7
{9}
6 км мгла 10/10 300 м -15.0 -18.0 78 -26 -26 977.8
С 7
{9}
6 км мгла 10/10 300 м -15.0 -18.0 78 -26 -26 977.8
С 8
{11}
11 км 10/10 330 м -16.0 -19.0 78 -28 -28 977.8
С 5
{10}
11 км слабый снег 10/10 330 м -16.0 -19.0 78 -26 -26 978.1
С 7
{9}
11 км слабый снег 10/10 270 м -16.0 -19.0 78 -27 -27 978.1
С 6
{8}
11 км 10/10 270 м -17.0 -19.0 84 -28 -28 978.4
С 6
{9}
16 км 10/10 270 м -17.0 -20.0 77 -28 -28 978.4
С 6
{9}
16 км 10/10 270 м -17.0 -20.0 77 -28 -28 978.4
С 4
{8}
11 км 10/10 270 м -17.0 -20.0 77 -26 -26 978.7
С 7
{9}
16 км 10/10 270 м -17.0 -20.0 77 -29 -29 978.7
С 7
{9}
16 км 10/10 270 м -17.0 -20.0 77 -29 -29 978.7
С 7 5 км мгла 10/10 270 м -17.0 -21.0 71 -28 -28 978.7
С 7
{10}
5 км мгла 10/10 270 м -17.0 -21.0 71 -29 -29 978.7
С 7
{10}
8 км мгла 10/10 270 м -18.0 -22.0 71 -30 -30 979.1
С 7 8 км мгла 10/10 270 м -18.0 -22.0 71 -30 -30 978.7
С 7 8 км мгла 10/10 270 м -18.0 -22.0 71 -30 -30 979.1
С 7 11 км 10/10 270 м -18.0 -22.0 71 -30 -30 979.4
С 7 11 км 10/10 270 м -18.0 -22.0 71 -30 -30 979.4
С 7 6 км мгла 10/10 270 м -18.0 -22.0 71 -30 -30 979.4
С 7 6 км мгла 10/10 270 м -18.0 -22.0 71 -30 -30 979.4
С 8
{10}
8 км мгла 10/10 270 м -18.0 -22.0 71 -30 -30 979.4
С 9
{11}
8 км мгла 10/10 270 м -18.0 -22.0 71 -31 -31 опасность
обморожения
979.4
Местоположение метеостанции Montevideo-Chippewa County Airport: широта 44.9667 долгота -95.7167 высота над уровнем моря 315 м.
В архиве по умолчанию представлена погода в Монтевидео за последние 1-2 суток. Обновление информации о фактической погоде в базе происходит ежечасно! Архивные данные за месяц целиком и за предыдущие месяцы Вы можете получить, выбрав интересующий диапазон дат из раскрывающегося списка и нажав кнопку "Ввод!".
Внимание! Архив погоды МЕТАР в базе сайта по станциям, не включенным в климатический монитор, хранится не более 60 дней. Нет смысла пытаться выбрать более раннюю дату.
*Определитесь, кто Вы:
Внимание! Время в таблицах - всемирное. Для получения местного времени необходимо прибавить поправку, которая равна ч.
Смотрите также архив погоды в соседних городах и на ближайших метеорологических станциях:
Партнеры нашего сайта:      
Пояснения к столбцам:
  • Ветер - указаны скорость ветра в м/с - средняя за 10 мин, порывы в срок и между сроками (в фигурных скобках) и направление, откуда дует ветер: С - северный,
  • СВ - северо-восточный, В - восточный, ЮВ - юго-восточный, Ю - южный, ЮЗ - юго-западный, З - западный, СЗ - северо-западный.
  • Видимость - горизонтальная дальность видимости в метрах или километрах. При видимости от 1 до 10 км при отсутствии осадков обычно наблюдается дымка, при ухудшении видимости до 1 км и менее - туман. В сухую погоду видимость может ухудшаться дымом, пылью или мглою.
  • Явления - указаны атмосферные явления, наблюдавшиеся в срок или в последний час перед сроком; фигурными скобками обозначены явления, наблюдавшиеся между сроками (за 1-3 часа до срока); квадратными скобками обозначены град или гололедные отложения с указанием их диаметра в мм.
  • Облачность - указаны через наклонную черту общая и нижняя облачность в баллах и высота нижней границы облаков в метрах; квадратными скобками обозначены формы облаков: Ci - перистые, Cs - перисто-слоистые, Cc - перисто-кучевые, Ac - высококучевые, As - высокослоистые, Sc - слоисто-кучевые, Ns - слоисто-дождевые, Cu - кучевые, Cb - кучево-дождевые. Подробнее классификацию облаков см. в Атласе облаков (PDF).
  • T - Температура воздуха - температура, измеренная на высоте 2 м над землей.
  • Td - Температура точки росы - температура, при понижении до которой содержащийся в воздухе водяной пар достигнет насыщения.
  • f - Относительная влажность воздуха - влажноcть воздуха, измеренная на высоте 2 м над землей.
  • Te - Эффективная температура - температура, которую ощущает одетый по сезону человек в тени. Характеристика душности погоды. При расчете учитывается влияние влажности воздуха и скорости ветра на теплоощущения человека.
  • Tes - Эффективная температура на солнце - температура, которую ощущает человек, с поправкой на солнечный нагрев. Характеристика знойности погоды. Зависит от высоты солнца над горизонтом, облачности и скорости ветра. Ночью, в пасмурную погоду, а также при ветре 12 м/с и более поправка равна нулю.
  • P - Атмосферное давление - приведенное к уровню моря атмосферное давление.
  • Po - Атмосферное давление - измеренное на уровне метеостанции атмосферное давление.
  • Tmin - Минимальная температура - минимум температуры воздуха на высоте 2 м над землей.
  • Tmax - Максимальная температура - максимум температуры воздуха на высоте 2 м над землей.
  • R - Количество осадков - Количество выпавших осадков за период времени, мм. При наведении курсора мыши на число - период времени, за который выпало указанное количество осадков.
  • R24 - Количество осадков - Количество выпавших осадков за 24 часа, мм.
  • S - Снежный покров - Высота снежного покрова, см. При наведении курсора мыши на число - состояние снежного покрова и степень покрытия местности в баллах.